Orbital Elements at Epoch 2459000.5 (2020-May-31.0) TDB
Reference: JPL 22 (heliocentric ecliptic J2000)
Element | Value | Uncertainty (1-sigma) | Units |
e | .1215591242694934 | 2.9112e-08 | |
a | 2.479505316465359 | 1.1669e-08 | au |
q | 2.178098821574277 | 6.8937e-08 | au |
i | 5.555229428620311 | 3.2589e-06 | deg |
node | 134.9435011950485 | 5.4918e-05 | deg |
peri | 197.3041376657703 | 5.9987e-05 | deg |
M | 122.7982187503542 | 2.5825e-05 | deg |
tp | 2458514.052966773513 (2019-Jan-30.55296677) | 0.00010124 | TDB |
period | 1426.086906989685 3.90 | 1.0067e-05 2.756e-08 | d yr |
n | .2524390331581691 | 1.782e-09 | deg/d |
Q | 2.780911811356441 | 1.3087e-08 | au |
|
| | Orbit Determination Parameters
Additional Information
|